Weather History for Kendall, FL

Change the Weather History Date:

Monday, July 22, 2013

  Actual Average Record
Temperature  
Mean Temperature 82 °F -  
Max Temperature 89 °F 89 °F 96 °F (2005)
Min Temperature 75 °F 71 °F 68 °F (1993)
Cooling Degree Days 17    
Growing Degree Days 32 (Base 50)    
Moisture  
Dew Point 75 °F    
Average Humidity 80    
Maximum Humidity 100    
Minimum Humidity 59    
Precipitation  
Precipitation 0.00 in - - ()
Sea Level Pressure  
Sea Level Pressure 30.12 in    
Wind  
Wind Speed 5 mph (ESE)    
Max Wind Speed 12 mph    
Max Gust Speed 16 mph    
Visibility 10 miles    
Events      
Averages and records for this station are not official NWS values.
T = Trace of Precipitation, MM = Missing Value Source: NWS Daily Summary

Daily Weather History Graph

Daily Weather History Graph

Search for Another Location

Airport:

Trip Planner

Search our weather history database for the weather conditions in past years. The results will help you decide how hot, cold, wet, or windy it might be!

Date:

Astronomy

Jul. 22, 2013 Rise Set
Actual Time 6:43 AM EDT 8:12 PM EDT
Civil Twilight 6:18 AM EDT 8:37 PM EDT
Nautical Twilight 5:48 AM EDT 9:07 PM EDT
Astronomical Twilight 5:16 AM EDT 9:39 PM EDT
Moon 8:06 PM EDT (7/22) 6:32 AM EDT (7/22)
Length of Visible Light 14h 19m
Length of Day
13h 29m
Full, 100% of the Moon is Illuminated
Jul 22
Full
Jul 22
Full
Jul 29
Last Quarter
Aug 6
New
Aug 14
First Quarter

Hourly Weather History & Observations

Time (EDT) Temp. Heat Index Dew Point Humidity Pressure Visibility Wind Dir Wind Speed Gust Speed Precip Events Conditions
12:53 AM 79.0 °F - 75.9 °F 90% 30.15 in 10.0 mi East 4.6 mph - N/A   Clear
1:53 AM 78.1 °F - 75.9 °F 93% 30.13 in 10.0 mi East 3.5 mph - N/A   Clear
2:53 AM 78.1 °F - 75.9 °F 93% 30.11 in 10.0 mi Calm Calm - N/A   Clear
3:53 AM 75.9 °F - 75.9 °F 100% 30.09 in 10.0 mi Calm Calm - N/A   Scattered Clouds
4:27 AM 75.2 °F - 75.2 °F 100% 30.09 in 10.0 mi Calm Calm - N/A   Mostly Cloudy
4:53 AM 75.9 °F - 75.9 °F 100% 30.09 in 10.0 mi Calm Calm - N/A   Mostly Cloudy
5:14 AM 77.0 °F - 75.2 °F 94% 30.09 in 10.0 mi Calm Calm - N/A   Scattered Clouds
5:53 AM 78.1 °F - 75.9 °F 93% 30.10 in 10.0 mi ESE 4.6 mph - N/A   Partly Cloudy
6:16 AM 78.8 °F - 75.2 °F 89% 30.10 in 10.0 mi East 3.5 mph - N/A   Mostly Cloudy
6:25 AM 78.8 °F - 75.2 °F 89% 30.11 in 10.0 mi East 4.6 mph - N/A   Mostly Cloudy
6:53 AM 79.0 °F - 75.9 °F 90% 30.11 in 10.0 mi SE 3.5 mph - N/A   Mostly Cloudy
7:53 AM 81.0 °F 87.9 °F 77.0 °F 88% 30.12 in 10.0 mi SE 5.8 mph - N/A   Partly Cloudy
8:53 AM 84.0 °F 91.9 °F 75.0 °F 74% 30.14 in 10.0 mi ESE 9.2 mph - N/A   Partly Cloudy
9:38 AM 84.2 °F 92.3 °F 75.2 °F 74% 30.15 in 10.0 mi SSE 6.9 mph - N/A   Mostly Cloudy
9:53 AM 86.0 °F 95.1 °F 75.0 °F 70% 30.15 in 10.0 mi ESE 10.4 mph - N/A   Mostly Cloudy
10:06 AM 84.2 °F 90.9 °F 73.4 °F 70% 30.15 in 10.0 mi SE 6.9 mph - N/A   Scattered Clouds
10:53 AM 86.0 °F 93.8 °F 73.9 °F 67% 30.15 in 10.0 mi SSE 8.1 mph - N/A   Partly Cloudy
11:53 AM 87.1 °F 95.4 °F 73.9 °F 65% 30.16 in 10.0 mi SE 10.4 mph - N/A   Partly Cloudy
12:53 PM 88.0 °F 96.5 °F 73.9 °F 63% 30.15 in 10.0 mi ESE 11.5 mph - N/A   Clear
1:53 PM 88.0 °F 94.7 °F 72.0 °F 59% 30.14 in 10.0 mi SE 8.1 mph 16.1 mph N/A   Scattered Clouds
2:53 PM 88.0 °F 95.6 °F 73.0 °F 61% 30.11 in 10.0 mi ESE 11.5 mph - N/A   Partly Cloudy
3:53 PM 89.1 °F 98.0 °F 73.9 °F 61% 30.10 in 10.0 mi SE 8.1 mph - N/A   Scattered Clouds
4:53 PM 87.1 °F 94.5 °F 73.0 °F 63% 30.09 in 10.0 mi SSE 10.4 mph - N/A   Clear
5:53 PM 87.1 °F 95.4 °F 73.9 °F 65% 30.08 in 10.0 mi East 6.9 mph - N/A   Clear
6:53 PM 86.0 °F 93.0 °F 73.0 °F 65% 30.09 in 10.0 mi ESE 6.9 mph - N/A   Clear
7:53 PM 82.9 °F 89.4 °F 73.9 °F 74% 30.10 in 10.0 mi ESE 6.9 mph - N/A   Clear
8:53 PM 81.0 °F 86.7 °F 75.0 °F 82% 30.11 in 10.0 mi ESE 3.5 mph - N/A   Clear
9:53 PM 80.1 °F 85.1 °F 75.0 °F 85% 30.12 in 10.0 mi ESE 3.5 mph - N/A   Clear
10:53 PM 79.0 °F - 75.0 °F 88% 30.12 in 10.0 mi ESE 4.6 mph - N/A   Clear
11:53 PM 80.1 °F 85.4 °F 75.9 °F 87% 30.12 in 10.0 mi SE 3.5 mph - N/A   Clear